ATLAS CENTAUR 2 1 00694U 63047A 26105.73087009 .00001864 00000+0 21823-3 0 9994 2 00694 30.3541 348.6124 0546718 46.7810 317.7144 14.12243336136862 THOR AGENA D R/B 1 00733U 64002A 26105.64144003 .00000090 00000+0 49351-4 0 9995 2 00733 99.1198 120.9907 0033476 149.4350 210.8793 14.34039154243596 SL-3 R/B 1 00877U 64053B 26105.78286627 .00000056 00000+0 35252-4 0 9991 2 00877 65.0768 222.4818 0080895 280.5860 78.6135 14.61394337272217 SL-8 R/B 1 02802U 67045B 26105.80539292 .00000177 00000+0 56770-4 0 9999 2 02802 74.0096 278.7688 0065173 277.0631 82.3118 14.45650074 94387 SL-8 R/B 1 03230U 68040B 26105.77517204 .00001814 00000+0 13540-3 0 9992 2 03230 74.0297 237.8951 0023580 46.4102 313.9038 15.03513074 95582 OAO 2 1 03597U 68110A 26105.55318996 .00000098 00000+0 31417-4 0 9996 2 03597 34.9938 59.3971 0005188 138.7807 221.3276 14.47327603 24446 ISIS 1 1 03669U 69009A 26105.09252893 .00000082 00000+0 49660-4 0 9998 2 03669 88.4468 151.3306 1707448 15.7189 349.0696 11.30422749352645 SERT 2 1 04327U 70009A 26105.73744189 .00000003 00000+0 60804-4 0 9993 2 04327 99.2805 46.8138 0005802 72.9306 347.1047 13.58734327784922 SL-3 R/B 1 05118U 71028B 26105.60038427 .00027560 00000+0 28457-3 0 9995 2 05118 81.2379 6.3330 0016381 143.9599 216.2764 15.64441976994435 ASTEX 1 1 05560U 71089A 26105.86054860 .00000232 00000+0 59066-4 0 9998 2 05560 92.7064 163.7679 0014029 326.2044 33.8267 14.50805900867699 SL-8 R/B 1 05730U 71119B 26105.38471694 .00004520 00000+0 23712-3 0 9998 2 05730 73.8833 107.0912 0545601 65.9491 299.7755 14.38493358660761 OAO 3 (COPERNICUS) 1 06153U 72065A 26105.68434685 .00000149 00000+0 34953-4 0 9994 2 06153 35.0054 86.5328 0006045 105.2454 60.3044 14.60025950851601 ATLAS CENTAUR R/B 1 06155U 72065B 26105.65089674 .00000664 00000+0 93407-4 0 9998 2 06155 35.0013 89.1248 0033900 320.3970 39.4255 14.77789215846739 SL-8 R/B 1 08459U 75112B 26105.85611449 .00000064 00000+0 29741-4 0 9990 2 08459 74.0601 310.5444 0015057 29.4425 330.7574 14.38223242637210 SL-3 R/B 1 10114U 77057B 26105.54685811 .00007384 00000+0 15044-3 0 9993 2 10114 97.5807 279.1302 0007995 143.6673 216.5120 15.46529507674029 SEASAT 1 1 10967U 78064A 26105.50284443 .00000121 00000+0 72291-4 0 9990 2 10967 108.0071 202.7384 0002784 266.6526 93.4301 14.46192194511831 SL-14 R/B 1 11267U 79011B 26105.33416244 .00000343 00000+0 31342-4 0 9992 2 11267 82.5236 61.7901 0014553 298.1030 61.8718 14.91957436534248 SL-8 R/B 1 11574U 79089B 26105.50570130 .00000126 00000+0 46078-4 0 9993 2 11574 74.0713 22.8917 0016058 189.5083 170.5772 14.42374924441418 SL-14 R/B 1 11672U 80005B 26105.50556673 .00000345 00000+0 32224-4 0 9999 2 11672 82.5112 272.3009 0016739 44.8794 315.3775 14.90973087481971 SL-8 R/B 1 12139U 81003B 26104.87549884 .00010493 00000+0 26039-3 0 9993 2 12139 82.9369 256.5194 0257538 52.9218 309.5256 15.12569913320146 SL-3 R/B 1 12465U 81046B 26105.63171846 .00007202 00000+0 16228-3 0 9999 2 12465 81.2299 245.3452 0018092 249.6688 110.2611 15.42910675444126 SL-3 R/B 1 12904U 81103B 26105.59838771 .00002487 00000+0 10824-3 0 9999 2 12904 81.1599 170.1310 0013774 157.9803 202.2023 15.21788612978847 SL-3 R/B 1 13068U 82013B 26105.59226705 .00002254 00000+0 95952-4 0 9998 2 13068 81.1713 117.5028 0023280 57.6514 302.6967 15.22330066409967 SL-3 R/B 1 13154U 82039B 26105.56216641 .00000847 00000+0 49870-4 0 9991 2 13154 81.1520 173.4357 0027944 199.7691 160.2454 15.10276626387209 SL-3 R/B 1 13403U 82079B 26105.60662075 .00002680 00000+0 10466-3 0 9998 2 13403 81.1457 149.4773 0024940 43.8971 316.4238 15.25244539383321 SL-14 R/B 1 13553U 82092B 26105.40266519 .00000235 00000+0 23604-4 0 9993 2 13553 82.5646 107.0485 0020437 174.8539 301.4050 14.86698678334385 SL-3 R/B 1 13819U 83010B 26105.56529294 .00007416 00000+0 14309-3 0 9997 2 13819 81.1017 316.9941 0015011 279.3974 80.5574 15.47521548363647 SL-3 R/B 1 14208U 83075B 26105.55633972 .00006338 00000+0 16346-3 0 9994 2 14208 97.6129 111.5554 0023249 97.6448 262.7439 15.39284714335829 COSMOS 1536 1 14699U 84013A 26105.61814852 .00003593 00000+0 14510-3 0 9997 2 14699 82.5432 71.1174 0015393 145.7791 214.4442 15.24338984278242 SL-14 R/B 1 14820U 84027B 26105.52625372 .00000243 00000+0 25003-4 0 9994 2 14820 82.5441 210.4680 0017279 207.1128 152.9188 14.86015823253102 SL-8 R/B 1 15483U 85006B 26105.61251118 .00000106 00000+0 43947-4 0 9996 2 15483 74.0464 193.2079 0017214 99.0935 4.1509 14.37807754159335 SL-12 R/B(2) 1 15772U 85042D 26105.50660747 .00000076 00000+0 55474-4 0 9991 2 15772 71.1105 9.9453 0033089 67.0161 105.3923 14.21992948119624 SL-14 R/B 1 15945U 85069B 26105.43245640 .00000236 00000+0 23855-4 0 9991 2 15945 82.5291 350.3929 0020317 72.1896 288.1535 14.86470930178291 SL-16 R/B 1 16182U 85097B 26105.65640469 .00000203 00000+0 12581-3 0 9995 2 16182 71.0030 62.7236 0008605 214.4894 318.1400 14.16605778 92461 SL-14 R/B 1 16496U 86006B 26105.60190619 .00000473 00000+0 47241-4 0 9997 2 16496 82.5281 224.9949 0077284 149.4024 211.1736 14.86879313154691 COSMOS 1743 1 16719U 86034A 26105.26524595 .00024804 00000+0 28523-3 0 9997 2 16719 82.5312 35.3509 0006964 127.5074 232.6818 15.61829837185951 SL-14 R/B 1 16792U 86046B 26105.58273316 .00000263 00000+0 27330-4 0 9997 2 16792 82.4835 45.3199 0024654 105.0241 255.3706 14.85627318131886 SL-14 R/B 1 16882U 86055B 26105.45238859 .00000251 00000+0 26075-4 0 9998 2 16882 82.5173 92.1072 0018118 206.1862 269.1112 14.85675872124820 AJISAI (EGS) 1 16908U 86061A 26105.56684758 -.00000080 00000+0 12423-3 0 9991 2 16908 50.0115 339.9531 0011395 21.7774 4.8327 12.44515789472595 SL-14 R/B 1 17567U 87024B 26105.60271121 .00000257 00000+0 26386-4 0 9993 2 17567 82.5283 58.0631 0019327 134.9319 225.3470 14.86168226 93617 COSMOS 1833 1 17589U 87027A 26105.60029397 -.00000316 00000+0 -14347-3 0 9997 2 17589 70.9161 248.4316 0022583 158.1742 202.0347 14.13038274 15537 SL-16 R/B 1 17590U 87027B 26105.60792023 -.00000225 00000+0 -87623-4 0 9999 2 17590 71.0034 198.6974 0003091 47.3369 312.8015 14.17169006 20577 SL-14 R/B 1 17912U 87038B 26105.48186032 .00000235 00000+0 24395-4 0 9998 2 17912 82.4988 262.1360 0020280 46.3080 313.9812 14.85403745 84699 COSMOS 1844 1 17973U 87041A 26105.31309622 -.00000118 00000+0 -36022-4 0 9995 2 17973 70.9001 316.9298 0032375 323.9591 35.9348 14.14564777 8765 SL-14 R/B 1 18153U 87055B 26105.04814612 .00000247 00000+0 25661-4 0 9999 2 18153 82.4977 314.7627 0019176 252.2166 107.6958 14.85662826 75337 COSMOS 1867 1 18187U 87060A 26105.60753889 -.00000066 00000+0 12954-4 0 9993 2 18187 65.0109 203.3142 0015187 280.6081 79.3292 14.31508657 25223 SL-14 R/B 1 18749U 88001B 26105.18073128 .00000215 00000+0 21984-4 0 9995 2 18749 82.5140 161.0487 0019515 115.8348 244.4884 14.85564742 47448 COSMOS 1933 1 18958U 88020A 26105.37072672 .00002372 00000+0 11406-3 0 9995 2 18958 82.5151 214.6130 0005393 79.8263 280.3579 15.18331550 55799 SL-3 R/B 1 19046U 88032B 26105.59537163 .00002536 00000+0 11881-3 0 9991 2 19046 97.5228 88.7386 0027633 104.4058 256.0247 15.20308606 57715 SL-16 R/B 1 19120U 88039B 26105.40943117 -.00000007 00000+0 19272-4 0 9996 2 19120 71.0168 350.9058 0024030 282.3157 77.5278 14.19622700963595 COSMOS 1953 1 19210U 88050A 26105.47509499 .00003651 00000+0 12795-3 0 9996 2 19210 82.5047 121.2276 0010646 5.2931 354.8419 15.29086858 43406 SL-8 R/B 1 19257U 88053B 26105.59550010 .00000078 00000+0 33951-4 0 9996 2 19257 74.0486 44.4336 0020989 218.2717 314.8884 14.38938173981905 COSMOS 1975 1 19573U 88093A 26105.38980939 .00002815 00000+0 99908-4 0 9990 2 19573 82.5172 80.8194 0012841 49.0266 311.2082 15.28550211 25010 SL-14 R/B 1 19574U 88093B 26105.24429046 .00000217 00000+0 22203-4 0 9991 2 19574 82.5344 7.7380 0019094 278.0246 198.9932 14.85697466 6442 SL-16 R/B 1 19650U 88102B 26105.35245226 -.00000111 00000+0 -32000-4 0 9996 2 19650 70.9989 74.3509 0016040 308.9490 51.0203 14.16159994932089 INTERCOSMOS 24 1 20261U 89080A 26105.42193017 .00000263 00000+0 74344-4 0 9993 2 20261 82.6025 80.4785 1187283 207.5045 145.8104 12.59596735671426 SL-14 R/B 1 20262U 89080C 26105.60291920 .00000205 00000+0 51756-4 0 9994 2 20262 82.5925 149.4989 1230970 100.4197 273.7670 12.50524448664769 DELTA 1 R/B 1 20323U 89089B 26105.45337500 .00000140 00000+0 43365-4 0 9994 2 20323 97.0675 307.0363 0069253 7.6571 352.5667 14.50692240901062 ARIANE 40 R/B 1 20443U 90005H 26105.15706404 .00000122 00000+0 52326-4 0 9994 2 20443 98.3013 164.7183 0011404 95.6861 264.5629 14.39894399898057 DELTA 2 R/B(1) 1 20453U 90008B 26105.20895488 .00034178 00000+0 34106-3 0 9998 2 20453 35.6029 294.2882 0076181 242.3609 116.9379 15.60887773931837 COSMOS 2058 1 20465U 90010A 26105.45614954 .00001267 00000+0 72748-4 0 9996 2 20465 82.4726 11.2049 0008964 199.4518 160.6371 15.11655151947790 SL-14 R/B 1 20466U 90010B 26105.44490924 .00000253 00000+0 27649-4 0 9999 2 20466 82.5026 232.8584 0019953 174.5265 185.6172 14.83605161933934 SL-14 R/B 1 20511U 90018B 26105.63296579 .00000204 00000+0 22577-4 0 9990 2 20511 82.5242 188.5706 0015468 335.1413 24.9054 14.82179630928052 HST 1 20580U 90037B 26105.41035801 .00003488 00000+0 10894-3 0 9997 2 20580 28.4729 149.3915 0002208 162.5991 197.4680 15.30051403778948 SL-16 R/B 1 20625U 90046B 26105.59825419 -.00000291 00000+0 -12564-3 0 9995 2 20625 70.9993 220.3947 0016493 251.5152 108.4178 14.15016728853612 COSMOS 2084 1 20663U 90055A 26105.51289497 .00001240 00000+0 98814-4 0 9995 2 20663 62.7891 209.9626 0011229 203.9601 156.0979 15.05867177941864 SL-6 R/B(2) 1 20666U 90055D 26105.41337558 .00000802 00000+0 72323-4 0 9999 2 20666 62.7805 128.9487 0030797 354.9327 5.1456 15.03759914943717 SL-8 R/B 1 20775U 90078B 26105.58754176 .00008993 00000+0 26515-3 0 9992 2 20775 82.9055 218.0980 0356641 249.3615 106.9028 14.90072278814790 SL-8 R/B 1 21088U 91006B 26105.46169301 .00000123 00000+0 10832-3 0 9991 2 21088 82.9413 142.7023 0021022 293.5927 180.4322 13.77501129769133 OKEAN-3 1 21397U 91039A 26105.51481789 .00001009 00000+0 69006-4 0 9995 2 21397 82.5138 301.1536 0013803 199.4998 160.5702 15.05013759870578 COSMOS 2151 1 21422U 91042A 26105.56846394 .00001076 00000+0 83777-4 0 9995 2 21422 82.4977 48.0945 0010829 299.5526 60.4618 15.00266082868724 SL-14 R/B 1 21423U 91042B 26105.49133645 .00000206 00000+0 22998-4 0 9998 2 21423 82.4957 185.6837 0018431 118.1406 242.1674 14.81865053858520 ERS-1 1 21574U 91050A 26105.60729341 .00000160 00000+0 65795-4 0 9992 2 21574 98.7848 124.7656 0033159 92.8498 267.6485 14.39477477821043 ARIANE 40 R/B 1 21610U 91050F 26105.15439109 .00000138 00000+0 53872-4 0 9991 2 21610 98.1940 156.0087 0002404 347.7291 12.3841 14.42919976824255 INTERCOSMOS 25 1 21819U 91086A 26105.22363890 .00000713 00000+0 13457-3 0 9995 2 21819 82.5992 287.9142 1485932 38.2048 331.5451 12.12114434501111 SL-8 R/B 1 21876U 92008B 26105.51876845 .00000009 00000+0 -68474-5 0 9994 2 21876 82.9262 240.3778 0035266 33.8306 37.9387 13.75970180714483 SL-8 R/B 1 21938U 92020B 26105.58321385 -.00000031 00000+0 -47413-4 0 9993 2 21938 82.9276 126.3627 0028726 192.0354 289.5817 13.75549783706202 USA 81 1 21949U 92023A 26105.47366634 .00000120 00000+0 36870-4 0 9994 2 21949 85.0034 110.2077 0001234 84.8038 275.3295 14.32379896100057 COSMOS 2219 1 22219U 92076A 26105.23408466 .00000134 00000+0 94865-4 0 9990 2 22219 71.0586 301.6758 0017333 149.9362 210.2760 14.14088999723548 SL-16 R/B 1 22220U 92076B 26105.48929378 .00000166 00000+0 10654-3 0 9997 2 22220 70.9978 110.8571 0011511 29.8459 83.9868 14.16866333727042 COSMOS 2221 1 22236U 92080A 26105.61877404 .00001083 00000+0 93148-4 0 9995 2 22236 82.5030 243.6965 0015569 71.0293 289.2615 14.96360020786317 SL-16 R/B 1 22285U 92093B 26105.48787115 -.00000108 00000+0 -31073-4 0 9995 2 22285 71.0199 287.0164 0006422 256.6393 103.4014 14.15453512718363 COSMOS 2228 1 22286U 92094A 26105.54348234 .00001192 00000+0 99990-4 0 9993 2 22286 82.5205 202.0278 0018219 173.5070 186.6392 14.97380285781579 SL-16 R/B 1 22566U 93016B 26105.39064425 -.00000009 00000+0 19787-4 0 9992 2 22566 71.0063 138.1021 0012699 268.0994 91.8675 14.15314009707368 COSMOS 2242 1 22626U 93024A 26105.60866337 .00001130 00000+0 96388-4 0 9991 2 22626 82.5191 231.3958 0016432 176.3999 183.7345 14.96713905785913 SL-16 R/B 1 22803U 93059B 26105.60255557 -.00000063 00000+0 -74168-5 0 9991 2 22803 70.9894 293.2848 0016330 161.1944 198.9786 14.17239351684764 ARIANE 40 R/B 1 22830U 93061H 26105.14987627 .00000115 00000+0 57948-4 0 9995 2 22830 98.4855 173.3062 0011028 170.2248 189.9153 14.32880345699327 COSMOS 2278 1 23087U 94023A 26105.37402422 .00000336 00000+0 20024-3 0 9998 2 23087 71.0510 98.3459 0009800 321.4492 38.5929 14.14379989649994 SL-16 R/B 1 23088U 94023B 26105.40390856 -.00000244 00000+0 -10129-3 0 9995 2 23088 71.0021 353.7856 0005601 254.0809 105.9697 14.15018789651284 SL-16 R/B 1 23343U 94074B 26105.03989602 .00000237 00000+0 38380-4 0 9997 2 23343 97.7054 134.3765 0008094 101.0876 288.7711 14.79448595692627 SL-16 R/B 1 23405U 94077B 26105.51255441 .00000155 00000+0 10350-3 0 9994 2 23405 70.9811 275.0186 0001059 159.4919 200.6247 14.15567216621440 ARIANE 40+ R/B 1 23561U 95021B 26105.43101679 .00000137 00000+0 57453-4 0 9997 2 23561 98.4440 176.4045 0007359 41.2980 329.9009 14.39798335624537 SL-16 R/B 1 23705U 95058B 26105.38000727 .00000279 00000+0 16690-3 0 9997 2 23705 71.0192 103.2242 0010616 58.3866 301.8292 14.15502911573046 SL-16 R/B 1 24298U 96051B 26105.42632432 .00000046 00000+0 51685-4 0 9994 2 24298 70.7583 97.4808 0012644 85.6327 274.6237 14.12425351526834 ORBVIEW 2 (SEASTAR) 1 24883U 97037A 26105.35963422 .00000139 00000+0 64612-4 0 9994 2 24883 98.8628 270.6552 0001474 339.0106 21.1018 14.35520288513733 SL-16 R/B 1 25400U 98043G 26105.56724270 .00000010 00000+0 23304-4 0 9998 2 25400 98.8314 59.2065 0008731 267.7171 92.3009 14.26058174444242 SL-16 R/B 1 25407U 98045B 26105.37290067 .00000068 00000+0 58456-4 0 9997 2 25407 71.0091 104.4298 0008907 316.2646 43.7771 14.16198820432297 ISS (ZARYA) 1 25544U 98067A 26105.55408209 .00005244 00000+0 10354-3 0 9997 2 25544 51.6327 250.0746 0006583 315.7730 44.2732 15.48924547562046 CZ-4B R/B 1 25732U 99025C 26105.57377042 .00000011 00000+0 26307-4 0 9996 2 25732 98.6556 148.9687 0036168 237.8019 242.5309 14.18272557393391 OKEAN-O 1 25860U 99039A 26105.15166637 .00000324 00000+0 49220-4 0 9999 2 25860 97.9371 164.6588 0001196 115.1282 245.0055 14.80392097439789 SL-16 R/B 1 25861U 99039B 26105.43496626 .00000235 00000+0 36571-4 0 9991 2 25861 97.9894 164.4623 0015820 134.7181 225.5323 14.81780838442300 DELTA 2 R/B 1 25876U 99041E 26105.39366092 .00000262 00000+0 82541-4 0 9996 2 25876 51.7596 154.6521 0502546 96.6645 269.1722 14.11916721368217 HELIOS 1B 1 25977U 99064A 26105.56988881 .00000744 00000+0 87798-4 0 9992 2 25977 98.1659 8.8918 0000807 38.6333 321.4940 14.87836987690745 TERRA 1 25994U 99068A 26105.57496282 .00000198 00000+0 49325-4 0 9992 2 25994 97.9519 157.5863 0003581 77.0866 60.1903 14.61053047400461 SL-16 R/B 1 26070U 00006B 26105.46850977 -.00000237 00000+0 -96207-4 0 9992 2 26070 71.0045 20.5021 0014739 131.0170 229.2230 14.15829124353762 TITAN 4B R/B 1 26474U 00047B 26105.59807187 .00001490 00000+0 98536-4 0 9991 2 26474 67.9868 296.6999 0041377 352.7883 7.2665 15.09866703398480 ENVISAT 1 27386U 02009A 26105.40348416 .00000033 00000+0 24719-4 0 9993 2 27386 98.3785 58.1408 0001158 84.1301 26.9083 14.39049489264456 IDEFIX & ARIANE 42P R/B 1 27422U 02021B 26105.55309302 .00000120 00000+0 62212-4 0 9992 2 27422 98.5910 43.7285 0013003 79.6719 280.5930 14.31050842249297 AQUA 1 27424U 02022A 26105.66285885 .00000443 00000+0 98008-4 0 9996 2 27424 98.4233 73.7191 0001799 106.6242 66.4637 14.62059246274133 CZ-4B R/B 1 27432U 02024C 26105.58437097 .00000009 00000+0 27919-4 0 9993 2 27432 98.8764 158.7917 0049041 278.3481 210.7568 14.14554121234456 MIDORI II (ADEOS-II) 1 27597U 02056A 26105.62583031 .00000145 00000+0 74902-4 0 9990 2 27597 98.7829 64.3739 0000290 140.2550 219.8653 14.29313007215579 H-2A R/B 1 27601U 02056E 26105.64722573 .00000172 00000+0 74545-4 0 9997 2 27601 98.3263 64.6207 0071232 52.1130 127.4075 14.33787124219403 CZ-4B R/B 1 28059U 03049C 26105.24271524 .00000200 00000+0 57370-4 0 9998 2 28059 98.6899 101.5897 0049170 119.4856 241.1257 14.55052640191916 CZ-2C R/B 1 28222U 04012C 26105.45947340 .00039330 00000+0 33792-3 0 9997 2 28222 97.7148 174.3526 0014025 170.4429 189.7102 15.69134733210037 SL-16 R/B 1 28353U 04021B 26105.43966896 .00000023 00000+0 36712-4 0 9990 2 28353 71.0004 155.3732 0006301 322.0201 38.0476 14.14605654128039 CZ-4B R/B 1 28415U 04035C 26105.54868033 .00004065 00000+0 14194-3 0 9999 2 28415 97.3439 139.3535 0031294 194.5175 165.5170 15.29692724185542 CZ-2C R/B 1 28480U 04046B 26105.50769873 .00000081 00000+0 44883-4 0 9994 2 28480 98.1973 18.1969 0140366 46.3597 314.9125 14.27006771113756 ARIANE 5 R/B 1 28499U 04049H 26105.48241966 .00000454 00000+0 56902-4 0 9991 2 28499 98.2678 275.3306 0083071 231.2860 128.0906 14.85336798151255 CZ-2D R/B 1 28738U 05024B 26104.78006391 .00029845 00000+0 32282-3 0 9993 2 28738 97.3553 121.3376 0003021 207.5190 152.5909 15.63550174145418 ALOS (DAICHI) 1 28931U 06002A 26105.60334584 .00000603 00000+0 10900-3 0 9999 2 28931 98.1276 61.3913 0001574 112.8076 247.3297 14.69919762 78905 H-2A R/B 1 28932U 06002B 26105.35332825 .00004984 00000+0 24575-3 0 9997 2 28932 98.2479 255.5695 0052640 116.6709 243.9927 15.17238696 99999 RESURS-DK 1 1 29228U 06021A 26105.49592190 .00001015 00000+0 63538-4 0 9990 2 29228 69.9297 141.8027 0002480 4.7944 355.3245 15.12948847 93099 CZ-4B R/B 1 29507U 06046C 26105.47945102 .00002501 00000+0 12725-3 0 9992 2 29507 97.5525 150.2838 0034232 138.1480 222.2380 15.17275463 65623 CZ-2C R/B 1 31114U 07010B 26105.57136961 .00000058 00000+0 45734-4 0 9999 2 31114 98.4021 217.0088 0058961 185.8368 174.2129 14.20259814984957 COSMO-SKYMED 1 1 31598U 07023A 26105.56901660 .00001035 00000+0 95673-4 0 9997 2 31598 97.8879 296.9047 0001373 85.9615 274.1763 14.96799956 20424 COSMOS 2428 1 31792U 07029A 26105.48968762 -.00000135 00000+0 -46783-4 0 9996 2 31792 70.9400 126.1043 0009499 237.7742 122.2459 14.12948023969298 SL-16 R/B 1 31793U 07029B 26105.40758939 -.00000143 00000+0 -49346-4 0 9999 2 31793 70.9728 95.1994 0002744 272.0148 195.0374 14.14841306970564 KORONAS-FOTON 1 33504U 09003A 26105.77409617 .00008360 00000+0 18009-3 0 9999 2 33504 82.4296 237.2899 0010695 27.4714 332.7097 15.44356197951465 CZ-2C R/B 1 37731U 11030B 26105.83157610 .00000478 00000+0 66753-4 0 9990 2 37731 97.8603 62.3705 0051255 228.4485 190.4029 14.81339596795599 H-2A R/B 1 38341U 12025E 26105.86757691 .00001708 00000+0 15797-3 0 9999 2 38341 98.4790 75.9129 0043952 189.1307 170.9118 14.95405548753774 SHIJIAN-16 (SJ-16) 1 39358U 13057A 26105.63279976 -.00000059 00000+0 -28283-5 0 9990 2 39358 74.9703 115.1457 0015756 17.5342 342.6387 14.92456325677015 SL-4 R/B 1 39679U 14021B 26105.49129742 .00008208 00000+0 18039-3 0 9995 2 39679 51.6056 157.5649 0093274 237.4932 121.7013 15.40466942661943 ALOS-2 1 39766U 14029A 26105.57873370 .00000547 00000+0 80120-4 0 9991 2 39766 97.9197 203.6400 0001809 89.2559 270.8859 14.79479151642320 YAOGAN-29 1 41038U 15069A 26105.83617647 .00000410 00000+0 57030-4 0 9996 2 41038 98.0092 134.3563 0001046 156.3559 203.7702 14.83034414561382 ASTRO-H (HITOMI) 1 41337U 16012A 26105.71473227 .00001564 00000+0 87614-4 0 9990 2 41337 30.9980 117.5688 0009573 343.4853 16.5473 15.10228598557834 HXMT (HUIYAN) 1 42758U 17034A 26105.50097419 .00002382 00000+0 12576-3 0 9998 2 42758 43.0132 171.9405 0030401 108.2602 252.1559 15.17929011488134 SAOCOM 1A 1 43641U 18076A 26105.62125127 .00000543 00000+0 74731-4 0 9997 2 43641 97.8904 293.2731 0001466 92.9879 267.1502 14.82148296406834 H-2A R/B 1 43682U 18084L 26105.13347895 .00010889 00000+0 24824-3 0 9996 2 43682 98.8679 330.3484 0023093 255.5500 104.3181 15.42890465411396 SAOCOM 1B 1 46265U 20059A 26105.58499580 -.00000383 00000+0 -41519-4 0 9990 2 46265 97.8891 292.3319 0001437 85.1059 275.0318 14.82157628304219 CSS (TIANHE) 1 48274U 21035A 26105.10565112 .00018051 00000+0 20098-3 0 9997 2 48274 41.4685 346.2837 0005649 210.9621 149.0886 15.62404897283301 COSMOS 2550 1 48865U 21056A 26105.62043198 -.00000192 00000+0 -10652-7 0 9996 2 48865 67.1427 289.1686 0008363 268.2966 91.7230 15.33837730269121 CZ-2C R/B 1 52794U 22058K 26105.38276472 .00019746 00000+0 26434-3 0 9995 2 52794 50.1863 129.1368 0040376 357.9485 2.1315 15.57002233215843 CZ-2C R/B 1 54039U 22132E 26105.55371433 .00029511 00000+0 29581-3 0 9991 2 54039 97.2940 110.0895 0013514 318.6296 41.3939 15.65375067196131 GSLV R/B 1 54149U 22138AN 26105.55526242 .00001326 00000+0 11224-3 0 9998 2 54149 87.3832 154.0140 0022260 24.4136 335.8145 14.96991194189441 XRISM 1 57800U 23137A 26105.21994546 .00002762 00000+0 15177-3 0 9990 2 57800 31.0026 47.3030 0007527 46.5933 313.5332 15.11913570143328 ACS3 1 59588U 24077B 26104.54937875 .00002786 00000+0 21868-2 0 9995 2 59588 97.1910 37.6042 0072226 359.7596 0.3522 13.91258553 99180 HTV-X1 1 66174U 25241A 26105.75475059 .00004725 00000+0 15908-3 0 9997 2 66174 51.6354 254.3357 0007513 316.3820 43.6567 15.32653838 26629 SZ-21 MODULE 1 66515U 25246C 26105.33049890 .00022253 00000+0 17104-3 0 9991 2 66515 41.4749 337.3074 0004486 273.6792 86.3537 15.71481945 23832